contact:dominique.lefevre@mio.osupytheas.fr, maurice.libes@osupytheas.fr, didier.mallarino@osupytheas.fr
Project:EMSO http://www.emso-fr.org/EMSO-France
Depth: 2436.0 m
Title:EMSO Ligure Ouest : Data MII capteur AQUADOPP
Date,Latitude,Longitude,X_East,Y_North,Z_Up,Amplitude_X,Amplitude_Y,Amplitude_Z,Batterie,SoundSpeed,Heading,Pitch,Roll,Pressure,TIS,Speed,Direction
, degrees North, degrees East, m.s-1, m.s-1,m.s-1, 1, 1, 1, Volt, m.s-1, degree, degree, degree, dbar, degree_C, m.s-1, degree
2023-07-11T00:04:03,42.805,6.029,0.015,0.0,-0.024,103.0,103.0,101.0,13.3,1505.2,338.5,-0.8,1.9,2471.539,13.29,0.015,90.0
2023-07-11T00:07:03,42.805,6.029,0.001,-0.012,-0.01,103.0,102.0,102.0,13.3,1505.2,336.3,-0.8,1.8,2471.517,13.29,0.012,175.2
2023-07-11T00:10:03,42.805,6.029,0.015,-0.004,-0.023,103.0,103.0,100.0,13.4,1505.2,344.4,-0.8,1.8,2471.498,13.29,0.015,104.9
2023-07-11T00:13:03,42.805,6.029,-0.001,-0.01,-0.02,105.0,103.0,101.0,13.3,1505.2,325.4,-0.8,1.8,2471.558,13.29,0.01,185.7
2023-07-11T00:16:03,42.805,6.029,0.002,0.0,-0.028,103.0,104.0,100.0,13.4,1505.2,334.9,-0.7,1.8,2471.519,13.29,0.002,90.0
2023-07-11T00:19:03,42.805,6.029,-0.005,0.011,-0.018,101.0,103.0,103.0,13.4,1505.2,324.7,-0.8,1.8,2471.498,13.29,0.012,335.6
2023-07-11T00:22:03,42.805,6.029,0.013,-0.001,0.0,103.0,105.0,102.0,13.3,1505.2,346.8,-0.7,1.8,2471.525,13.29,0.013,94.4
2023-07-11T00:25:03,42.805,6.029,0.013,-0.012,-0.024,104.0,101.0,101.0,13.3,1505.2,333.8,-0.7,1.8,2471.487,13.29,0.017,132.7
2023-07-11T00:28:03,42.805,6.029,0.009,0.014,-0.022,104.0,103.0,101.0,13.3,1505.2,329.0,-0.8,1.8,2471.524,13.29,0.016,32.7
2023-07-11T00:31:03,42.805,6.029,0.021,0.008,0.001,103.0,103.0,102.0,13.4,1505.2,332.2,-0.7,1.8,2471.467,13.29,0.022,69.1
2023-07-11T00:34:03,42.805,6.029,0.003,-0.005,-0.026,102.0,103.0,101.0,13.4,1505.2,329.2,-0.8,1.8,2471.537,13.29,0.005,149.0
2023-07-11T00:37:03,42.805,6.029,-0.015,0.006,-0.014,115.0,103.0,102.0,13.3,1505.2,330.2,-0.8,1.8,2471.508,13.29,0.016,291.8
2023-07-11T00:40:03,42.805,6.029,0.013,-0.024,-0.037,103.0,103.0,102.0,13.4,1505.2,353.4,-0.8,1.8,2471.502,13.29,0.027,151.6
2023-07-11T00:43:03,42.805,6.029,-0.016,0.016,-0.022,104.0,103.0,102.0,13.3,1505.2,333.8,-0.8,1.8,2471.487,13.29,0.022,315.0
2023-07-11T00:46:03,42.805,6.029,0.018,0.001,-0.023,102.0,103.0,102.0,13.3,1505.2,324.7,-0.7,1.8,2471.518,13.29,0.018,86.8
2023-07-11T00:49:03,42.805,6.029,0.0,-0.002,-0.049,103.0,103.0,103.0,13.3,1505.2,351.5,-0.8,1.8,2471.472,13.29,0.002,180.0
2023-07-11T00:52:03,42.805,6.029,0.001,-0.006,-0.036,103.0,103.0,102.0,13.4,1505.2,329.9,-0.7,1.8,2471.523,13.29,0.006,170.5
2023-07-11T00:55:03,42.805,6.029,0.012,0.005,0.027,103.0,102.0,103.0,13.3,1505.2,345.2,-0.8,1.8,2471.57,13.29,0.013,67.4
2023-07-11T00:58:03,42.805,6.029,0.011,-0.012,-0.01,106.0,103.0,102.0,13.4,1505.2,340.2,-0.8,1.8,2471.495,13.29,0.016,137.5
2023-07-11T01:04:03,42.805,6.029,-0.007,-0.022,-0.036,104.0,106.0,102.0,13.4,1505.2,330.5,-0.7,1.8,2471.569,13.29,0.023,197.6
2023-07-11T01:07:03,42.805,6.029,0.002,-0.008,-0.012,103.0,103.0,102.0,13.3,1505.2,330.7,-0.8,1.8,2471.525,13.29,0.008,166.0
2023-07-11T01:10:03,42.805,6.029,-0.021,-0.01,-0.016,103.0,103.0,107.0,13.4,1505.2,349.9,-0.8,1.8,2471.533,13.29,0.023,244.5
2023-07-11T01:13:03,42.805,6.029,0.008,-0.023,-0.012,103.0,102.0,102.0,13.4,1505.2,341.9,-0.7,1.8,2471.522,13.29,0.024,160.8
2023-07-11T01:16:03,42.805,6.029,0.014,-0.008,-0.016,104.0,104.0,103.0,13.3,1505.2,339.6,-0.8,1.8,2471.546,13.29,0.016,119.7
2023-07-11T01:19:03,42.805,6.029,0.003,0.0,-0.028,103.0,104.0,102.0,13.4,1505.2,341.2,-0.7,1.8,2471.498,13.29,0.003,90.0
2023-07-11T01:22:03,42.805,6.029,0.0,-0.018,-0.024,103.0,104.0,103.0,13.4,1505.2,346.2,-0.7,1.8,2471.525,13.29,0.018,180.0
2023-07-11T01:25:03,42.805,6.029,-0.026,0.013,-0.059,104.0,103.0,101.0,13.4,1505.2,340.0,-0.8,1.8,2471.499,13.29,0.029,296.6
2023-07-11T01:28:03,42.805,6.029,0.008,-0.009,-0.039,104.0,103.0,102.0,13.3,1505.2,350.3,-0.7,1.8,2471.514,13.29,0.012,138.4
2023-07-11T01:31:03,42.805,6.029,0.005,-0.003,-0.011,104.0,105.0,101.0,13.4,1505.2,326.0,-0.8,1.8,2471.547,13.29,0.005,121.0
2023-07-11T01:34:03,42.805,6.029,0.014,0.01,-0.017,104.0,102.0,102.0,13.4,1505.2,353.1,-0.8,1.8,2471.534,13.29,0.017,54.5
2023-07-11T01:37:03,42.805,6.029,-0.002,-0.009,-0.011,104.0,102.0,102.0,13.3,1505.2,335.6,-0.8,1.8,2471.513,13.29,0.009,192.5
2023-07-11T01:40:03,42.805,6.029,-0.004,-0.024,-0.026,102.0,102.0,103.0,13.4,1505.2,351.5,-0.7,1.8,2471.493,13.29,0.024,189.5
2023-07-11T01:43:03,42.805,6.029,0.013,-0.008,0.011,105.0,103.0,103.0,13.4,1505.2,328.8,-0.8,1.8,2471.528,13.29,0.015,121.6
2023-07-11T01:46:03,42.805,6.029,-0.003,-0.008,0.0,105.0,104.0,102.0,13.4,1505.2,348.2,-0.8,1.8,2471.495,13.29,0.008,200.6
2023-07-11T01:49:03,42.805,6.029,0.003,0.0,-0.025,104.0,103.0,102.0,13.4,1505.2,333.4,-0.8,1.8,2471.494,13.29,0.003,90.0
2023-07-11T01:52:03,42.805,6.029,0.002,-0.018,-0.001,103.0,104.0,102.0,13.4,1505.2,330.2,-0.7,1.8,2471.509,13.29,0.018,173.7
2023-07-11T01:55:03,42.805,6.029,0.0,-0.014,-0.045,102.0,104.0,103.0,13.4,1505.2,332.1,-0.8,1.8,2471.501,13.29,0.014,180.0
2023-07-11T01:58:03,42.805,6.029,-0.003,-0.005,-0.025,104.0,103.0,102.0,13.3,1505.2,333.4,-0.8,1.8,2471.518,13.29,0.005,211.0
2023-07-11T02:04:03,42.805,6.029,0.014,-0.006,-0.051,104.0,103.0,101.0,13.4,1505.2,328.8,-0.8,1.8,2471.561,13.29,0.015,113.2
2023-07-11T02:07:03,42.805,6.029,-0.005,0.0,-0.021,102.0,102.0,103.0,13.4,1505.2,330.7,-0.8,1.8,2471.547,13.29,0.005,270.0
2023-07-11T02:10:03,42.805,6.029,0.014,0.002,-0.014,103.0,103.0,101.0,13.4,1505.2,331.7,-0.8,1.8,2471.545,13.29,0.014,81.9
2023-07-11T02:13:03,42.805,6.029,0.021,0.017,-0.006,103.0,103.0,103.0,13.3,1505.2,321.4,-0.8,1.8,2471.531,13.29,0.027,51.0
2023-07-11T02:16:03,42.805,6.029,-0.014,0.004,-0.014,104.0,103.0,102.0,13.3,1505.2,332.9,-0.8,1.8,2471.509,13.29,0.014,285.9
2023-07-11T02:19:03,42.805,6.029,-0.009,-0.023,-0.023,104.0,103.0,102.0,13.4,1505.2,323.4,-0.8,1.8,2471.532,13.29,0.024,201.4
2023-07-11T02:22:03,42.805,6.029,0.004,-0.006,-0.042,105.0,104.0,102.0,13.4,1505.2,335.6,-0.8,1.8,2471.521,13.29,0.007,146.3
2023-07-11T02:25:03,42.805,6.029,0.018,0.008,0.005,103.0,103.0,102.0,13.4,1505.2,348.6,-0.8,1.8,2471.526,13.29,0.019,66.0
2023-07-11T02:28:03,42.805,6.029,0.024,-0.013,-0.017,103.0,103.0,102.0,13.4,1505.2,325.5,-0.8,1.8,2471.51,13.29,0.027,118.4
2023-07-11T02:31:03,42.805,6.029,0.005,-0.006,-0.041,104.0,102.0,101.0,13.3,1505.2,335.0,-0.8,1.9,2471.489,13.29,0.007,140.2
2023-07-11T02:34:03,42.805,6.029,0.0,0.01,-0.003,103.0,103.0,102.0,13.3,1505.2,328.3,-0.8,1.8,2471.512,13.29,0.01,0.0
2023-07-11T02:37:03,42.805,6.029,-0.021,-0.017,-0.033,104.0,100.0,102.0,13.4,1505.2,325.4,-0.7,1.8,2471.485,13.29,0.027,231.0
2023-07-11T02:40:03,42.805,6.029,-0.007,0.0,-0.04,103.0,103.0,101.0,13.4,1505.2,338.4,-0.8,1.8,2471.52,13.29,0.007,270.0
2023-07-11T02:43:03,42.805,6.029,-0.009,-0.011,-0.003,104.0,101.0,102.0,13.4,1505.2,341.9,-0.8,1.8,2471.499,13.29,0.014,219.3
2023-07-11T02:46:03,42.805,6.029,0.006,-0.015,-0.032,102.0,103.0,102.0,13.3,1505.2,338.5,-0.7,1.8,2471.459,13.29,0.016,158.2
2023-07-11T02:49:03,42.805,6.029,0.0,-0.003,-0.016,105.0,104.0,103.0,13.4,1505.2,337.9,-0.8,1.8,2471.472,13.29,0.003,180.0
2023-07-11T02:52:03,42.805,6.029,0.0,-0.004,-0.01,102.0,104.0,101.0,13.3,1505.2,337.2,-0.8,1.8,2471.525,13.29,0.004,180.0
2023-07-11T02:55:03,42.805,6.029,0.019,-0.012,-0.006,104.0,102.0,100.0,13.4,1505.2,325.0,-0.7,1.8,2471.505,13.29,0.022,122.3
2023-07-11T02:58:03,42.805,6.029,-0.001,0.008,-0.017,103.0,103.0,102.0,13.3,1505.2,335.9,-0.7,1.8,2471.506,13.29,0.008,352.9
2023-07-11T03:04:03,42.805,6.029,0.008,0.011,-0.01,103.0,104.0,102.0,13.3,1505.2,346.5,-0.8,1.8,2471.539,13.29,0.013,36.0
2023-07-11T03:07:03,42.805,6.029,0.015,-0.016,-0.037,104.0,102.0,101.0,13.3,1505.2,336.1,-0.7,1.8,2471.543,13.29,0.021,136.9
2023-07-11T03:10:03,42.805,6.029,0.008,0.02,-0.031,103.0,103.0,101.0,13.3,1505.2,330.6,-0.8,1.8,2471.522,13.29,0.021,21.8
2023-07-11T03:13:03,42.805,6.029,0.002,0.005,-0.039,103.0,103.0,102.0,13.4,1505.2,326.0,-0.8,1.8,2471.492,13.29,0.005,21.8
2023-07-11T03:16:03,42.805,6.029,-0.004,0.0,-0.022,103.0,104.0,101.0,13.4,1505.2,327.9,-0.8,1.8,2471.498,13.29,0.004,270.0
2023-07-11T03:19:03,42.805,6.029,0.017,-0.023,-0.02,104.0,102.0,103.0,13.3,1505.2,328.0,-0.8,1.8,2471.521,13.29,0.028,143.5
2023-07-11T03:22:03,42.805,6.029,0.009,-0.004,0.001,102.0,103.0,101.0,13.4,1505.2,332.1,-0.8,1.8,2471.486,13.29,0.009,114.0
2023-07-11T03:25:03,42.805,6.029,0.013,-0.008,-0.01,104.0,103.0,101.0,13.3,1505.2,353.2,-0.7,1.8,2471.469,13.29,0.015,121.6
2023-07-11T03:28:03,42.805,6.029,-0.001,0.007,-0.02,104.0,102.0,103.0,13.3,1505.2,325.0,-0.8,1.8,2471.468,13.29,0.007,351.9
2023-07-11T03:31:03,42.805,6.029,-0.005,0.003,0.004,103.0,104.0,101.0,13.4,1505.2,334.3,-0.7,1.8,2471.467,13.29,0.005,301.0
2023-07-11T03:34:03,42.805,6.029,0.004,-0.02,-0.034,102.0,102.0,104.0,13.4,1505.2,332.9,-0.8,1.8,2471.477,13.29,0.02,168.7
2023-07-11T03:37:03,42.805,6.029,0.009,0.022,-0.014,105.0,102.0,102.0,13.4,1505.2,332.1,-0.8,1.8,2471.462,13.29,0.023,22.2
2023-07-11T03:40:03,42.805,6.029,-0.014,0.026,-0.044,104.0,103.0,102.0,13.3,1505.2,341.9,-0.7,1.8,2471.477,13.29,0.029,331.7
2023-07-11T03:43:03,42.805,6.029,0.019,-0.008,-0.045,102.0,102.0,102.0,13.4,1505.2,335.5,-0.8,1.8,2471.523,13.3,0.02,112.8
2023-07-11T03:46:03,42.805,6.029,0.0,0.0,-0.017,104.0,105.0,101.0,13.4,1505.2,328.5,-0.8,1.8,2471.451,13.3,0.0,0.0
2023-07-11T03:49:03,42.805,6.029,-0.008,-0.008,-0.036,103.0,104.0,103.0,13.4,1505.2,339.0,-0.8,1.8,2471.492,13.3,0.011,225.0
2023-07-11T03:52:03,42.805,6.029,0.006,0.01,-0.017,104.0,103.0,101.0,13.4,1505.2,325.8,-0.8,1.8,2471.464,13.3,0.011,31.0
2023-07-11T03:55:03,42.805,6.029,-0.007,-0.005,-0.038,104.0,104.0,102.0,13.4,1505.2,337.3,-0.8,1.8,2471.48,13.3,0.008,234.5
2023-07-11T03:58:03,42.805,6.029,0.017,-0.007,-0.027,105.0,103.0,101.0,13.4,1505.2,330.9,-0.8,1.8,2471.5,13.3,0.018,112.4
2023-07-11T04:04:03,42.805,6.029,-0.02,0.029,-0.037,104.0,104.0,101.0,13.4,1505.2,326.3,-0.8,1.9,2471.536,13.29,0.035,325.4
2023-07-11T04:07:03,42.805,6.029,0.004,0.007,-0.013,104.0,103.0,103.0,13.3,1505.2,343.4,-0.7,1.8,2471.495,13.29,0.008,29.7
2023-07-11T04:10:03,42.805,6.029,-0.016,0.008,-0.019,103.0,102.0,102.0,13.4,1505.2,352.1,-0.8,1.8,2471.513,13.29,0.017,296.6
2023-07-11T04:13:03,42.805,6.029,0.003,-0.005,-0.012,103.0,103.0,101.0,13.4,1505.2,352.8,-0.8,1.8,2471.495,13.29,0.005,149.0
2023-07-11T04:16:03,42.805,6.029,0.0,-0.007,-0.025,103.0,104.0,102.0,13.3,1505.2,341.2,-0.8,1.8,2471.489,13.3,0.007,180.0
2023-07-11T04:19:03,42.805,6.029,0.008,0.0,-0.008,103.0,103.0,101.0,13.4,1505.2,341.9,-0.8,1.8,2471.487,13.3,0.008,90.0
2023-07-11T04:22:03,42.805,6.029,0.005,0.005,-0.038,103.0,103.0,103.0,13.4,1505.2,344.8,-0.8,1.8,2471.475,13.29,0.007,45.0
2023-07-11T04:25:03,42.805,6.029,0.0,-0.002,-0.009,102.0,102.0,102.0,13.4,1505.2,342.3,-0.8,1.8,2471.47,13.29,0.002,180.0
2023-07-11T04:28:03,42.805,6.029,0.005,0.005,-0.031,104.0,103.0,101.0,13.3,1505.2,330.5,-0.8,1.8,2471.45,13.29,0.007,45.0
2023-07-11T04:31:03,42.805,6.029,0.0,0.008,-0.036,103.0,102.0,102.0,13.4,1505.2,334.7,-0.7,1.8,2471.459,13.3,0.008,0.0
2023-07-11T04:34:03,42.805,6.029,-0.023,0.005,-0.051,102.0,104.0,101.0,13.4,1505.2,347.1,-0.7,1.8,2471.483,13.3,0.023,282.3
2023-07-11T04:37:03,42.805,6.029,-0.011,0.001,-0.008,103.0,104.0,102.0,13.3,1505.2,330.7,-0.8,1.8,2471.421,13.3,0.011,275.2
2023-07-11T04:40:03,42.805,6.029,0.001,-0.001,-0.039,102.0,104.0,103.0,13.4,1505.2,326.0,-0.8,1.8,2471.442,13.29,0.001,135.0
2023-07-11T04:43:03,42.805,6.029,-0.002,-0.009,-0.056,106.0,103.0,103.0,13.4,1505.2,337.1,-0.8,1.8,2471.41,13.29,0.009,192.5
2023-07-11T04:46:03,42.805,6.029,-0.006,0.037,-0.015,104.0,103.0,101.0,13.4,1505.2,347.0,-0.7,1.8,2471.432,13.29,0.037,350.8
2023-07-11T04:49:03,42.805,6.029,-0.019,0.0,0.0,103.0,102.0,103.0,13.3,1505.2,333.8,-0.8,1.8,2471.425,13.29,0.019,270.0
2023-07-11T04:52:03,42.805,6.029,-0.006,0.016,-0.009,104.0,103.0,101.0,13.4,1505.2,350.5,-0.7,1.8,2471.432,13.29,0.017,339.4
2023-07-11T04:55:03,42.805,6.029,-0.011,0.0,-0.028,104.0,103.0,103.0,13.4,1505.2,321.1,-0.8,1.8,2471.484,13.29,0.011,270.0
2023-07-11T04:58:03,42.805,6.029,-0.007,0.0,-0.022,101.0,105.0,100.0,13.3,1505.2,343.6,-0.8,1.8,2471.477,13.29,0.007,270.0
2023-07-11T05:04:03,42.805,6.029,-0.012,-0.013,-0.06,103.0,104.0,102.0,13.3,1505.2,320.9,-0.8,1.9,2471.506,13.29,0.017,222.7
2023-07-11T05:07:03,42.805,6.029,0.007,0.01,-0.014,104.0,103.0,101.0,13.4,1505.2,322.2,-0.8,1.8,2471.507,13.29,0.012,35.0
2023-07-11T05:10:03,42.805,6.029,0.003,-0.005,-0.035,104.0,102.0,103.0,13.4,1505.2,322.3,-0.7,1.8,2471.462,13.29,0.005,149.0
2023-07-11T05:13:03,42.805,6.029,-0.025,-0.004,-0.036,103.0,104.0,101.0,13.3,1505.2,332.1,-0.8,1.8,2471.497,13.29,0.025,260.9
2023-07-11T05:16:03,42.805,6.029,-0.003,0.015,-0.015,103.0,103.0,102.0,13.4,1505.2,342.3,-0.8,1.8,2471.44,13.29,0.015,348.7
2023-07-11T05:19:03,42.805,6.029,0.006,-0.002,-0.008,102.0,103.0,102.0,13.3,1505.2,352.0,-0.7,1.8,2471.451,13.29,0.006,108.4
2023-07-11T05:22:03,42.805,6.029,-0.023,-0.006,-0.024,103.0,104.0,105.0,13.4,1505.2,349.3,-0.8,1.8,2471.455,13.29,0.023,255.4
2023-07-11T05:25:03,42.805,6.029,-0.005,-0.005,-0.036,104.0,103.0,102.0,13.4,1505.2,348.9,-0.8,1.8,2471.425,13.29,0.007,225.0
2023-07-11T05:28:03,42.805,6.029,-0.002,0.008,-0.013,105.0,103.0,101.0,13.3,1505.2,327.9,-0.8,1.8,2471.422,13.29,0.008,346.0
2023-07-11T05:31:03,42.805,6.029,-0.023,0.03,-0.03,104.0,102.0,102.0,13.3,1505.2,333.4,-0.7,1.8,2471.484,13.29,0.037,322.5
2023-07-11T05:34:03,42.805,6.029,-0.02,0.012,-0.035,104.0,101.0,102.0,13.4,1505.2,348.9,-0.7,1.8,2471.405,13.29,0.023,301.0
2023-07-11T05:37:03,42.805,6.029,-0.015,0.017,-0.001,103.0,103.0,102.0,13.4,1505.2,341.2,-0.8,1.8,2471.432,13.29,0.022,318.6
2023-07-11T05:40:03,42.805,6.029,-0.001,0.018,-0.035,103.0,103.0,102.0,13.4,1505.2,331.9,-0.8,1.8,2471.413,13.29,0.018,356.8
2023-07-11T05:43:03,42.805,6.029,-0.022,0.021,-0.032,103.0,103.0,100.0,13.4,1505.2,335.9,-0.8,1.8,2471.445,13.3,0.03,313.7
2023-07-11T05:46:03,42.805,6.029,0.001,0.008,0.0,102.0,103.0,101.0,13.3,1505.2,338.0,-0.8,1.8,2471.414,13.3,0.008,7.1
2023-07-11T05:49:03,42.805,6.029,-0.005,0.011,-0.026,102.0,103.0,102.0,13.3,1505.2,336.0,-0.8,1.8,2471.443,13.3,0.012,335.6
2023-07-11T05:52:03,42.805,6.029,-0.012,0.004,-0.024,103.0,104.0,102.0,13.4,1505.2,331.9,-0.8,1.8,2471.414,13.3,0.012,288.4
2023-07-11T05:55:03,42.805,6.029,-0.005,0.002,-0.035,103.0,102.0,102.0,13.4,1505.2,321.4,-0.8,1.9,2471.393,13.3,0.005,291.8
2023-07-11T05:58:03,42.805,6.029,-0.017,0.005,-0.016,103.0,102.0,102.0,13.4,1505.2,340.5,-0.8,1.8,2471.412,13.3,0.017,286.4
2023-07-11T06:04:03,42.805,6.029,0.006,-0.004,-0.019,104.0,103.0,101.0,13.4,1505.2,329.9,-0.7,1.8,2471.472,13.29,0.007,123.7
2023-07-11T06:07:03,42.805,6.029,0.0,-0.01,-0.039,104.0,103.0,102.0,13.3,1505.2,342.4,-0.7,1.8,2471.469,13.29,0.01,180.0
2023-07-11T06:10:03,42.805,6.029,-0.003,-0.005,-0.045,102.0,103.0,102.0,13.4,1505.2,333.4,-0.7,1.8,2471.45,13.29,0.005,211.0
2023-07-11T06:13:03,42.805,6.029,-0.012,0.012,-0.005,103.0,102.0,101.0,13.3,1505.2,333.4,-0.8,1.8,2471.448,13.29,0.016,315.0
2023-07-11T06:16:03,42.805,6.029,-0.01,-0.014,-0.002,104.0,102.0,102.0,13.3,1505.2,352.1,-0.8,1.8,2471.386,13.29,0.017,215.5
2023-07-11T06:19:03,42.805,6.029,-0.011,0.011,-0.02,103.0,103.0,101.0,13.4,1505.2,343.0,-0.7,1.8,2471.408,13.29,0.015,315.0
2023-07-11T06:22:03,42.805,6.029,0.007,-0.025,-0.045,104.0,103.0,102.0,13.4,1505.2,339.9,-0.8,1.8,2471.407,13.29,0.025,164.4
2023-07-11T06:25:03,42.805,6.029,-0.002,-0.001,-0.024,102.0,103.0,101.0,13.4,1505.2,343.4,-0.7,1.8,2471.44,13.29,0.002,243.4
2023-07-11T06:28:03,42.805,6.029,-0.013,0.02,-0.016,103.0,103.0,103.0,13.4,1505.2,333.0,-0.8,1.8,2471.419,13.3,0.023,327.0
2023-07-11T06:31:03,42.805,6.029,0.007,0.006,-0.029,102.0,103.0,103.0,13.4,1505.2,332.4,-0.8,1.8,2471.398,13.3,0.009,49.4
2023-07-11T06:34:03,42.805,6.029,0.006,0.001,-0.039,103.0,102.0,102.0,13.4,1505.2,334.4,-0.7,1.8,2471.39,13.3,0.006,80.5
2023-07-11T06:37:03,42.805,6.029,-0.001,0.001,-0.015,103.0,103.0,102.0,13.4,1505.2,344.7,-0.7,1.8,2471.431,13.3,0.001,315.0
2023-07-11T06:40:03,42.805,6.029,-0.023,0.018,0.003,104.0,103.0,102.0,13.4,1505.2,329.2,-0.8,1.8,2471.415,13.3,0.029,308.0
2023-07-11T06:43:03,42.805,6.029,0.015,0.018,-0.03,105.0,102.0,103.0,13.3,1505.2,321.0,-0.7,1.8,2471.387,13.3,0.023,39.8
2023-07-11T06:46:03,42.805,6.029,0.002,-0.007,-0.028,105.0,103.0,101.0,13.3,1505.2,345.3,-0.8,1.8,2471.403,13.3,0.007,164.1
2023-07-11T06:49:03,42.805,6.029,0.017,-0.001,-0.01,102.0,103.0,102.0,13.4,1505.2,340.5,-0.8,1.8,2471.381,13.3,0.017,93.4
2023-07-11T06:52:03,42.805,6.029,-0.003,0.008,0.005,103.0,102.0,102.0,13.4,1505.2,348.4,-0.8,1.8,2471.404,13.3,0.008,339.4
2023-07-11T06:55:03,42.805,6.029,-0.001,0.007,-0.013,103.0,102.0,102.0,13.3,1505.2,326.6,-0.8,1.8,2471.386,13.3,0.007,351.9
2023-07-11T06:58:03,42.805,6.029,-0.004,0.002,0.005,104.0,102.0,101.0,13.4,1505.2,335.7,-0.8,1.8,2471.343,13.3,0.004,296.6
2023-07-11T07:04:03,42.805,6.029,-0.01,0.003,-0.038,102.0,103.0,102.0,13.3,1505.2,323.8,-0.8,1.8,2471.42,13.29,0.01,286.7
2023-07-11T07:07:03,42.805,6.029,0.012,-0.005,-0.045,103.0,103.0,103.0,13.3,1505.2,331.2,-0.8,1.8,2471.4,13.29,0.013,112.6
2023-07-11T07:10:03,42.805,6.029,0.005,0.002,-0.033,103.0,103.0,102.0,13.3,1505.2,332.5,-0.7,1.8,2471.401,13.29,0.005,68.2
2023-07-11T07:13:03,42.805,6.029,0.003,-0.005,-0.047,102.0,102.0,103.0,13.4,1505.2,336.9,-0.8,1.8,2471.414,13.3,0.005,149.0
2023-07-11T07:16:03,42.805,6.029,0.01,0.024,-0.02,105.0,102.0,101.0,13.4,1505.2,332.4,-0.7,1.8,2471.415,13.3,0.026,22.6
2023-07-11T07:19:03,42.805,6.029,-0.012,-0.005,0.005,102.0,103.0,102.0,13.4,1505.2,334.7,-0.7,1.8,2471.399,13.3,0.013,247.4
2023-07-11T07:22:03,42.805,6.029,0.004,-0.001,-0.001,103.0,105.0,101.0,13.4,1505.2,326.8,-0.8,1.8,2471.415,13.3,0.004,104.0
2023-07-11T07:25:03,42.805,6.029,-0.007,-0.013,-0.069,103.0,103.0,102.0,13.4,1505.2,348.1,-0.7,1.8,2471.342,13.3,0.014,208.3
2023-07-11T07:28:11,42.805,6.029,-0.019,0.014,-0.014,104.0,104.0,101.0,13.3,1505.2,324.5,-0.8,1.9,2471.372,13.3,0.023,306.4
2023-07-11T07:31:03,42.805,6.029,-0.009,-0.012,-0.009,105.0,102.0,102.0,13.4,1505.2,326.0,-0.7,1.8,2471.359,13.3,0.015,216.9
2023-07-11T07:34:03,42.805,6.029,-0.01,0.0,0.017,103.0,102.0,101.0,13.4,1505.2,350.1,-0.7,1.8,2471.363,13.3,0.01,270.0
2023-07-11T07:37:03,42.805,6.029,-0.005,0.029,-0.02,104.0,103.0,101.0,13.4,1505.2,322.0,-0.8,1.8,2471.335,13.3,0.029,350.2
2023-07-11T07:40:03,42.805,6.029,0.009,0.008,-0.01,103.0,102.0,103.0,13.3,1505.2,351.7,-0.8,1.8,2471.34,13.3,0.012,48.4
2023-07-11T07:43:03,42.805,6.029,-0.013,0.002,-0.002,102.0,103.0,102.0,13.4,1505.2,333.8,-0.8,1.8,2471.371,13.3,0.013,278.7
2023-07-11T07:46:03,42.805,6.029,-0.004,-0.003,-0.032,103.0,105.0,101.0,13.4,1505.2,328.3,-0.8,1.8,2471.383,13.3,0.005,233.1
2023-07-11T07:49:03,42.805,6.029,0.003,0.01,0.01,104.0,105.0,102.0,13.4,1505.2,348.4,-0.8,1.8,2471.35,13.3,0.01,16.7
2023-07-11T07:52:03,42.805,6.029,-0.001,0.014,-0.012,105.0,103.0,101.0,13.3,1505.2,332.5,-0.8,1.8,2471.351,13.3,0.014,355.9
2023-07-11T07:55:03,42.805,6.029,-0.002,0.02,0.013,103.0,102.0,102.0,13.4,1505.2,335.0,-0.8,1.8,2471.338,13.3,0.02,354.3
2023-07-11T07:58:03,42.805,6.029,-0.003,0.01,-0.036,101.0,104.0,102.0,13.4,1505.2,347.7,-0.8,1.8,2471.368,13.3,0.01,343.3
2023-07-11T08:04:03,42.805,6.029,0.007,0.004,-0.003,103.0,102.0,101.0,13.4,1505.2,328.6,-0.7,1.8,2471.37,13.3,0.008,60.3
2023-07-11T08:07:03,42.805,6.029,0.014,0.016,-0.001,101.0,102.0,100.0,13.3,1505.2,333.9,-0.8,1.8,2471.388,13.3,0.021,41.2
2023-07-11T08:10:03,42.805,6.029,-0.002,0.004,-0.055,102.0,104.0,101.0,13.4,1505.2,328.0,-0.7,1.8,2471.333,13.3,0.004,333.4
2023-07-11T08:13:03,42.805,6.029,-0.015,0.005,-0.019,103.0,105.0,101.0,13.3,1505.2,329.3,-0.8,1.8,2471.39,13.3,0.015,288.4
2023-07-11T08:16:03,42.805,6.029,0.001,0.005,-0.03,105.0,103.0,101.0,13.4,1505.2,329.0,-0.7,1.8,2471.35,13.3,0.005,11.3
2023-07-11T08:19:03,42.805,6.029,0.01,0.0,-0.007,103.0,103.0,101.0,13.4,1505.2,325.3,-0.8,1.8,2471.374,13.3,0.01,90.0
2023-07-11T08:22:03,42.805,6.029,-0.005,0.02,-0.015,103.0,104.0,102.0,13.3,1505.2,332.9,-0.8,1.8,2471.365,13.3,0.02,346.0
2023-07-11T08:25:03,42.805,6.029,-0.012,0.014,-0.011,104.0,102.0,101.0,13.3,1505.2,325.1,-0.7,1.8,2471.336,13.3,0.018,319.4
2023-07-11T08:28:03,42.805,6.029,-0.012,0.006,-0.008,104.0,101.0,101.0,13.4,1505.2,337.6,-0.8,1.8,2471.35,13.3,0.013,296.6
2023-07-11T08:31:03,42.805,6.029,0.025,0.01,0.003,103.0,102.0,101.0,13.3,1505.2,343.7,-0.8,1.8,2471.338,13.3,0.026,68.2
2023-07-11T08:34:03,42.805,6.029,0.005,-0.007,-0.008,103.0,103.0,101.0,13.4,1505.2,340.4,-0.8,1.8,2471.317,13.3,0.008,144.5
2023-07-11T08:37:03,42.805,6.029,-0.019,0.005,-0.013,105.0,104.0,102.0,13.4,1505.2,342.3,-0.8,1.8,2471.359,13.3,0.019,284.7
2023-07-11T08:40:03,42.805,6.029,-0.007,0.006,-0.018,104.0,102.0,102.0,13.3,1505.2,354.4,-0.8,1.8,2471.308,13.3,0.009,310.6
2023-07-11T08:43:03,42.805,6.029,0.012,0.011,-0.005,104.0,103.0,101.0,13.3,1505.2,323.1,-0.8,1.8,2471.325,13.3,0.016,47.5
2023-07-11T08:46:03,42.805,6.029,0.001,0.017,0.0,102.0,103.0,101.0,13.4,1505.2,336.2,-0.7,1.8,2471.328,13.3,0.017,3.4
2023-07-11T08:49:03,42.805,6.029,-0.006,0.009,0.001,103.0,103.0,101.0,13.4,1505.2,334.5,-0.7,1.8,2471.34,13.3,0.01,326.3
2023-07-11T08:52:03,42.805,6.029,-0.003,0.019,0.006,105.0,102.0,103.0,13.4,1505.2,323.4,-0.8,1.8,2471.328,13.3,0.019,351.0
2023-07-11T08:55:21,42.805,6.029,0.03,0.022,0.008,103.0,104.0,102.0,13.3,1505.2,344.2,-0.8,1.8,2471.389,13.3,0.037,53.7
2023-07-11T08:58:03,42.805,6.029,0.018,-0.004,-0.033,104.0,103.0,103.0,13.4,1505.2,330.3,-0.7,1.8,2471.352,13.3,0.018,102.5
2023-07-11T09:04:03,42.805,6.029,0.0,-0.006,-0.033,103.0,102.0,101.0,13.4,1505.2,333.9,-0.8,1.8,2471.381,13.29,0.006,180.0
2023-07-11T09:07:03,42.805,6.029,0.005,-0.004,-0.02,104.0,104.0,102.0,13.3,1505.2,346.7,-0.8,1.8,2471.362,13.3,0.006,128.7
2023-07-11T09:10:03,42.805,6.029,-0.006,0.018,-0.034,104.0,102.0,104.0,13.4,1505.2,330.9,-0.8,1.9,2471.376,13.3,0.018,341.6
2023-07-11T09:13:03,42.805,6.029,0.016,0.012,-0.023,104.0,102.0,102.0,13.3,1505.2,333.8,-0.7,1.8,2471.376,13.3,0.02,53.1
2023-07-11T09:16:02,42.805,6.029,0.004,0.005,-0.037,103.0,103.0,102.0,13.4,1505.2,348.9,-0.8,1.8,2471.345,13.3,0.006,38.7
2023-07-11T09:19:03,42.805,6.029,0.007,0.008,-0.012,105.0,103.0,102.0,13.4,1505.2,323.3,-0.7,1.8,2471.353,13.3,0.01,41.2
2023-07-11T09:22:03,42.805,6.029,0.016,0.018,-0.008,104.0,103.0,102.0,13.4,1505.2,334.4,-0.8,1.8,2471.374,13.3,0.024,41.6
2023-07-11T09:25:03,42.805,6.029,-0.01,-0.003,-0.044,103.0,104.0,101.0,13.4,1505.2,341.9,-0.7,1.8,2471.373,13.3,0.01,253.3
2023-07-11T09:28:02,42.805,6.029,-0.011,0.012,0.003,103.0,103.0,103.0,13.4,1505.2,333.4,-0.7,1.8,2471.344,13.3,0.016,317.5
2023-07-11T09:31:02,42.805,6.029,0.003,0.011,-0.016,103.0,103.0,102.0,13.4,1505.2,352.1,-0.8,1.8,2471.336,13.3,0.011,15.3
2023-07-11T09:34:02,42.805,6.029,0.006,-0.018,-0.051,104.0,103.0,103.0,13.4,1505.2,340.2,-0.8,1.9,2471.357,13.3,0.018,161.6
2023-07-11T09:37:02,42.805,6.029,0.011,0.015,-0.022,104.0,102.0,102.0,13.4,1505.2,334.5,-0.8,1.8,2471.365,13.3,0.018,36.3
2023-07-11T09:40:02,42.805,6.029,0.0,-0.007,0.004,102.0,102.0,102.0,13.4,1505.2,352.1,-0.8,1.8,2471.332,13.3,0.007,180.0
2023-07-11T09:43:02,42.805,6.029,0.011,0.002,-0.012,103.0,103.0,102.0,13.4,1505.2,325.3,-0.7,1.8,2471.363,13.3,0.011,79.7
2023-07-11T09:46:03,42.805,6.029,0.004,-0.011,-0.022,103.0,103.0,103.0,13.4,1505.2,332.5,-0.8,1.9,2471.34,13.3,0.011,160.0
2023-07-11T09:49:02,42.805,6.029,0.015,0.013,-0.014,103.0,104.0,102.0,13.4,1505.2,329.4,-0.7,1.8,2471.358,13.3,0.019,49.1
2023-07-11T09:52:02,42.805,6.029,0.028,-0.018,-0.04,103.0,103.0,103.0,13.4,1505.2,334.7,-0.7,1.8,2471.369,13.3,0.033,122.7
2023-07-11T09:55:02,42.805,6.029,0.024,-0.012,-0.014,104.0,102.0,103.0,13.4,1505.2,335.5,-0.7,1.8,2471.367,13.3,0.026,116.6
2023-07-11T09:58:02,42.805,6.029,-0.024,0.027,-0.017,103.0,102.0,102.0,13.3,1505.2,331.6,-0.8,1.8,2471.341,13.3,0.036,318.4